Burlington Piers, Ontario

9:39 AM EDT on April 23, 2017 (GMT -0400)
Burlington Piers

Weather History for CWWB - October, 2012

Change the Weather History Date:

Wednesday, October 17, 2012

  Actual Average Record
Temperature  
Mean Temperature 55 °F -  
Max Temperature 67 °F - - ()
Min Temperature 43 °F - - ()
Degree Days  
Heating Degree Days 10    
Growing Degree Days 5 (Base 50)    
Moisture  
Dew Point 43 °F    
Average Humidity 78    
Maximum Humidity 92    
Minimum Humidity 44    
Precipitation  
Precipitation 0.00 in - - ()
Sea Level Pressure  
Sea Level Pressure 29.81 in    
Wind  
Wind Speed 5 mph ()    
Max Wind Speed 13 mph    
Max Gust Speed -    
T = Trace of Precipitation, MM = Missing Value Source: Averaged Metar Reports

Daily Weather History Graph

Daily Weather History Graph

Search for Another Location

Airport or City:

Trip Planner

Search our weather history database for the weather conditions in past years. The results will help you decide how hot, cold, wet, or windy it might be!

Date:

Astronomy

Oct. 17, 2012 Rise Set
Actual Time 7:36 AM EDT 6:32 PM EDT
Civil Twilight 7:07 AM EDT 7:00 PM EDT
Nautical Twilight 6:34 AM EDT 7:34 PM EDT
Astronomical Twilight 6:01 AM EDT 8:06 PM EDT
Moon 10:13 AM EDT (10/17) 8:01 PM EDT (10/17)
Length of Visible Light 11h 53m
Length of Day
10h 56m
Waxing Crescent, 7% of the Moon is Illuminated
Oct 17
Waxing Crescent
Oct 21
First Quarter
Oct 29
Full
Nov 6
Last Quarter
Nov 13
New

Hourly Weather History & Observations

Time (EDT) Temp. Windchill Dew Point Humidity Pressure Visibility Wind Dir Wind Speed Gust Speed Precip Events Conditions
12:00 AM 44.8 °F 43.3 °F 39.7 °F 82% 29.88 in - WNW 3.5 mph - N/A   Unknown
1:00 AM 45.0 °F - 39.6 °F 81% 29.88 in - NNE 2.3 mph - N/A   Unknown
2:00 AM 45 °F - 39 °F 74% 29.88 in - North 2.3 mph - -  
2:00 AM 44.8 °F - 39.4 °F 81% 29.88 in - North 2.3 mph - N/A   Unknown
3:00 AM 44.1 °F 42.5 °F 39.4 °F 84% 29.88 in - North 3.5 mph - N/A   Unknown
4:00 AM 43.9 °F 42.3 °F 38.5 °F 81% 29.86 in - NW 3.5 mph - N/A   Unknown
5:00 AM 43.7 °F 42.1 °F 39.4 °F 85% 29.85 in - NNW 3.5 mph - N/A   Unknown
6:00 AM 44.1 °F 41.5 °F 40.1 °F 86% 29.84 in - NNW 4.6 mph - N/A   Unknown
7:00 AM 44.8 °F 43.3 °F 41.4 °F 88% 29.85 in - NNW 3.5 mph - N/A   Unknown
8:00 AM 45 °F - 42 °F 86% 29.85 in - NNW 5.8 mph - -  
8:00 AM 45.3 °F 42.3 °F 42.1 °F 88% 29.85 in - NNW 5.8 mph - N/A   Unknown
9:00 AM 45.5 °F 43.2 °F 42.6 °F 90% 29.86 in - North 4.6 mph - N/A   Unknown
10:00 AM 46.9 °F - 44.8 °F 92% 29.86 in - North 5.8 mph - N/A   Unknown
11:00 AM 47.1 °F - 44.6 °F 91% 29.84 in - NE 6.9 mph - N/A   Unknown
12:00 PM 47.1 °F - 44.6 °F 91% 29.81 in - NNE 8.1 mph - N/A   Unknown
1:00 PM 49.1 °F - 45.7 °F 88% 29.80 in - NNE 5.8 mph - N/A   Unknown
2:00 PM 56 °F - 46 °F 61% 29.78 in - East 3.5 mph - -  
2:00 PM 55.6 °F - 46.2 °F 71% 29.78 in - East 3.5 mph - N/A   Unknown
3:00 PM 65.1 °F - 44.6 °F 47% 29.75 in - South 11.5 mph - N/A   Unknown
4:00 PM 66.2 °F - 44.6 °F 46% 29.74 in - South 10.4 mph - N/A   Unknown
5:00 PM 67.1 °F - 45.0 °F 45% 29.74 in - South 9.2 mph - N/A   Unknown
6:00 PM 65.8 °F - 43.5 °F 44% 29.74 in - SSE 9.2 mph - N/A   Unknown
7:00 PM 49.1 °F - 45.1 °F 86% 29.75 in - NNE 8.1 mph - N/A   Unknown
8:00 PM 48 °F - 44 °F 83% 29.76 in - NNE 12.7 mph - -  
8:00 PM 48.4 °F - 44.4 °F 86% 29.76 in - NNE 12.7 mph - N/A   Unknown
9:00 PM 51.8 °F - 45.3 °F 79% 29.75 in - North 6.9 mph - N/A   Unknown
10:00 PM 51.6 °F - 45.3 °F 79% 29.75 in - NNW 4.6 mph - N/A   Unknown
11:00 PM 50.7 °F - 45.3 °F 82% 29.75 in - NNE 4.6 mph - N/A   Unknown